GW1815 Weather Reports


Display with metric or nautical units.
time (UTC)temp
F
wind
direction
speed
MPH
gust
MPH
rain 1hr
in
rain 24hr
in
rain mn
in
humidity
%
barometer
mb
20260509093043 53 194 6.0 15.0 0.00 0.00 0.00 82 1001.7
20260509091530 53 177 7.0 14.0 0.00 0.00 0.00 83 1001.8
20260509090032 52 200 3.0 9.0 0.00 0.00 0.00 83 1002.0
20260509084543 52 182 5.0 18.0 0.00 0.00 0.00 83 1002.1
20260509083030 52 195 5.0 11.0 0.00 0.00 0.00 82 1002.1
20260509081538 52 220 2.0 11.0 0.00 0.00 0.00 82 1002.2
20260509080041 53 146 4.0 11.0 0.00 0.00 0.00 82 1002.2
20260509074528 53 230 5.0 11.0 0.00 0.00 0.00 82 1002.3
20260509073037 53 173 5.0 10.0 0.00 0.00 0.00 82 1002.3
20260509071530 53 238 5.0 12.0 0.00 0.00 0.00 84 1002.5
20260509070030 52 217 4.0 15.0 0.00 0.00 0.00 85 1002.9
20260509064533 52 208 5.0 12.0 0.00 0.00 0.00 85 1003.1
20260509063031 51 190 3.0 10.0 0.00 0.00 0.00 85 1003.3
20260509061528 51 205 3.0 11.0 0.00 0.00 0.00 83 1003.5
20260509060030 51 0 1.0 6.0 0.00 0.00 0.00 82 1003.7
20260509054535 51 0 2.0 7.0 0.00 0.00 0.00 82 1003.9
20260509053037 50 178 2.0 8.0 0.00 0.00 0.00 82 1003.8
20260509051536 49 177 3.0 10.0 0.00 0.00 0.00 83 1003.8
20260509050030 48 0 3.0 10.0 0.00 0.00 0.00 84 1003.7
20260509044528 48 198 4.0 12.0 0.00 0.00 0.00 82 1003.8
20260509043033 48 192 2.0 10.0 0.00 0.00 0.00 79 1003.7
20260509041533 48 167 2.0 6.0 0.00 0.00 0.00 78 1003.8
20260509040029 49 157 1.0 8.0 0.00 0.00 0.00 76 1003.9
20260509034531 50 200 1.0 6.0 0.00 0.00 0.00 75 1004.0
20260509033028 51 162 1.0 6.0 0.00 0.00 0.00 75 1004.2
20260509031534 51 163 3.0 11.0 0.00 0.00 0.00 75 1004.3
20260509030031 51 163 3.0 14.0 0.00 0.00 0.00 74 1004.5
20260509024531 51 159 4.0 14.0 0.00 0.00 0.00 73 1004.6
20260509023036 50 161 4.0 11.0 0.00 0.00 0.00 72 1004.7
20260509021535 50 151 4.0 11.0 0.00 0.00 0.00 69 1004.7
20260509020035 50 169 5.0 11.0 0.00 0.00 0.00 69 1004.7
20260509014542 50 138 5.0 12.0 0.00 0.00 0.00 67 1004.8
20260509013037 51 142 2.0 10.0 0.00 0.00 0.00 64 1005.0
20260509011530 51 170 1.0 8.0 0.00 0.00 0.00 63 1005.0
20260509010035 52 178 3.0 10.0 0.00 0.00 0.00 60 1005.1
20260509004531 53 198 4.0 9.0 0.00 0.00 0.00 57 1005.1
20260509003035 53 157 5.0 12.0 0.00 0.00 0.00 53 1005.1
20260509001532 54 159 5.0 12.0 0.00 0.00 0.00 54 1005.2
20260509000035 55 175 6.0 13.0 0.00 0.00 0.00 50 1005.4
20260508234534 55 134 3.0 11.0 0.00 0.00 0.00 48 1005.4
20260508233046 56 174 3.0 10.0 0.00 0.00 0.00 45 1005.5
20260508231537 57 171 4.0 11.0 0.00 0.00 0.00 43 1005.7
20260508230030 58 128 7.0 15.0 0.00 0.00 0.00 39 1005.6
20260508224532 59 171 4.0 18.0 0.00 0.03 0.00 37 1005.7
20260508223030 60 112 7.0 15.0 0.00 0.03 0.00 35 1005.7
20260508221532 59 102 3.0 16.0 0.00 0.03 0.00 37 1005.8
20260508220035 59 141 9.0 15.0 0.00 0.03 0.00 34 1005.8
20260508214532 60 176 8.0 16.0 0.00 0.03 0.00 34 1005.7
20260508213035 60 42 3.0 16.0 0.00 0.03 0.00 39 1006.1
20260508211536 60 138 6.0 15.0 0.00 0.03 0.00 33 1006.3
20260508210030 61 144 8.0 15.0 0.00 0.03 0.00 32 1006.5
20260508204533 62 86 5.0 16.0 0.00 0.03 0.00 34 1006.6
20260508203031 62 106 7.0 16.0 0.00 0.03 0.00 35 1006.9
20260508201528 62 153 7.0 16.0 0.00 0.03 0.00 34 1007.0
20260508200030 62 136 5.0 14.0 0.00 0.03 0.00 36 1007.1
20260508194533 62 169 8.0 17.0 0.00 0.04 0.00 32 1007.3
20260508193030 62 176 7.0 15.0 0.00 0.04 0.00 37 1007.5
20260508191537 63 115 8.0 18.0 0.00 0.04 0.00 33 1007.8
20260508190030 63 116 7.0 14.0 0.00 0.04 0.00 36 1008.1
20260508184531 62 123 5.0 14.0 0.00 0.04 0.00 39 1008.3
20260508183032 62 145 4.0 15.0 0.00 0.04 0.00 39 1008.4
20260508181531 61 169 8.0 17.0 0.00 0.04 0.00 34 1008.4
20260508180032 61 111 5.0 16.0 0.00 0.04 0.00 46 1008.6
20260508174530 61 143 8.0 17.0 0.00 0.04 0.00 44 1008.9
20260508173033 61 112 3.0 12.0 0.00 0.04 0.00 46 1008.9
20260508171534 60 209 5.0 15.0 0.00 0.04 0.00 46 1009.2
20260508170035 60 124 4.0 11.0 0.00 0.04 0.00 47 1009.5
20260508164532 61 172 5.0 12.0 0.00 0.04 0.00 47 1009.9
20260508163034 61 177 3.0 12.0 0.00 0.04 0.00 47 1009.9
20260508161542 61 128 3.0 12.0 0.00 0.04 0.00 50 1010.0
20260508160033 61 145 4.0 10.0 0.00 0.04 0.00 54 1010.2
20260508154541 60 155 4.0 10.0 0.00 0.04 0.00 55 1010.2
20260508153030 59 129 5.0 10.0 0.00 0.04 0.00 56 1010.4
20260508151534 60 179 5.0 10.0 0.00 0.04 0.00 59 1010.3
20260508150032 59 136 5.0 12.0 0.00 0.04 0.00 60 1010.5
20260508144534 58 160 4.0 10.0 0.00 0.04 0.00 61 1010.3
20260508143047 57 88 5.0 9.0 0.00 0.04 0.00 62 1010.3
20260508141532 56 79 3.0 7.0 0.00 0.04 0.00 64 1010.4
20260508140038 54 113 2.0 7.0 0.00 0.04 0.00 69 1010.5
20260508134529 52 0 3.0 5.0 0.00 0.04 0.00 80 1010.6
20260508133032 48 180 1.0 5.0 0.00 0.04 0.00 92 1010.4
20260508131533 47 0 0.0 3.0 0.00 0.04 0.00 94 1010.6
20260508130041 45 0 0.0 3.0 0.00 0.04 0.00 94 1010.8
20260508124535 43 115 1.0 3.0 0.00 0.04 0.00 94 1010.8
20260508123042 40 0 1.0 3.0 0.00 0.04 0.00 94 1010.9
20260508121535 36 0 0.0 0.0 0.00 0.04 0.00 93 1010.8
20260508120030 34 0 0.0 0.0 0.00 0.04 0.00 92 1010.8
20260508114535 32 0 0.0 0.0 0.00 0.04 0.00 92 1010.7
20260508113030 31 0 0.0 0.0 0.00 0.04 0.00 91 1010.7
20260508111534 31 0 0.0 0.0 0.00 0.04 0.00 90 1010.6
20260508110036 31 0 0.0 0.0 0.00 0.04 0.00 90 1010.3
20260508104532 31 0 0.0 0.0 0.00 0.04 0.00 90 1010.3
20260508103038 31 0 0.0 0.0 0.00 0.04 0.00 90 1010.3
20260508101538 32 0 0.0 0.0 0.00 0.04 0.00 90 1010.3
20260508100030 32 0 0.0 0.0 0.00 0.04 0.00 90 1010.4
20260508094542 32 0 0.0 0.0 0.00 0.04 0.00 90 1010.3